AV194 Weather Reports


time (UTC)temp
C
wind
direction
speed
KPH
gust
KPH
rain 1hr
cm
rain 24hr
cm
rain mn
cm
humidity
%
barometer
mb
20260503233554 8 27 0.0 3.2 0.00 0.05 0.00 54 1007.3
20260503233156 8 63 0.0 1.6 0.00 0.05 0.00 55 1007.3
20260503232552 8 52 0.0 1.6 0.00 0.05 0.00 53 1007.3
20260503232052 9 63 0.0 8.0 0.00 0.05 0.00 53 1007.3
20260503231555 9 355 1.6 8.0 0.00 0.05 0.00 49 1007.3
20260503231052 10 342 0.0 6.4 0.00 0.05 0.00 48 1007.2
20260503230552 10 302 0.0 3.2 0.00 0.05 0.00 48 1007.2
20260503230059 10 313 1.6 8.0 0.00 0.05 0.00 46 1007.1
20260503225551 10 269 3.2 8.0 0.00 0.05 0.00 45 1007.0
20260503225051 10 338 1.6 9.7 0.00 0.05 0.00 48 1007.0
20260503224551 10 346 4.8 9.7 0.00 0.05 0.00 44 1007.0
20260503224051 10 35 4.8 14.5 0.00 0.05 0.00 44 1007.0
20260503223551 10 347 6.4 14.5 0.00 0.05 0.00 43 1006.9
20260503223057 10 327 4.8 8.0 0.00 0.05 0.00 45 1006.7
20260503222550 10 323 1.6 8.0 0.00 0.05 0.00 44 1006.7
20260503222050 10 334 1.6 16.1 0.00 0.05 0.00 43 1006.7
20260503221553 10 27 4.8 16.1 0.00 0.05 0.00 41 1006.6
20260503221052 11 296 6.4 16.1 0.00 0.05 0.00 42 1006.6
20260503220551 11 252 6.4 16.1 0.00 0.05 0.00 44 1006.5
20260503220049 10 336 6.4 11.3 0.00 0.05 0.00 43 1006.5
20260503215549 10 350 6.4 11.3 0.00 0.05 0.00 42 1006.5
20260503215049 11 348 3.2 16.1 0.00 0.05 0.00 43 1006.4
20260503214548 11 329 8.0 16.1 0.00 0.05 0.00 41 1006.4
20260503214049 10 223 6.4 11.3 0.00 0.05 0.00 42 1006.3
20260503213548 10 306 1.6 11.3 0.00 0.05 0.00 43 1006.3
20260503213100 10 33 4.8 16.1 0.00 0.05 0.00 42 1006.3
20260503212548 11 324 6.4 16.1 0.00 0.05 0.00 42 1006.2
20260503212048 11 351 3.2 9.7 0.00 0.05 0.00 43 1006.2
20260503211547 11 340 3.2 14.5 0.00 0.05 0.00 44 1006.1
20260503211047 11 86 3.2 19.3 0.00 0.05 0.00 43 1006.0
20260503210550 11 312 3.2 19.3 0.00 0.05 0.00 43 1005.9
20260503210055 11 312 4.8 14.5 0.00 0.18 0.00 42 1005.8
20260503205548 11 246 3.2 14.5 0.00 0.18 0.00 46 1005.9
20260503205046 11 337 4.8 14.5 0.00 0.18 0.00 43 1005.9
20260503204552 11 321 6.4 17.7 0.00 0.18 0.00 42 1005.8
20260503204046 11 33 6.4 17.7 0.00 0.18 0.00 43 1005.8
20260503203546 11 333 3.2 12.9 0.00 0.18 0.00 45 1005.7
20260503203045 10 286 6.4 17.7 0.00 0.18 0.00 42 1005.8
20260503202545 11 292 8.0 17.7 0.00 0.18 0.00 43 1005.7
20260503202045 11 30 4.8 16.1 0.00 0.18 0.00 42 1005.6
20260503201545 11 329 6.4 16.1 0.00 0.18 0.00 42 1005.5
20260503201043 11 292 6.4 17.7 0.00 0.18 0.00 42 1005.4
20260503200543 11 346 4.8 17.7 0.00 0.18 0.00 41 1005.5
20260503200049 11 331 6.4 12.9 0.00 0.46 0.00 40 1005.5
20260503195544 11 221 4.8 17.7 0.00 0.46 0.00 42 1005.5
20260503195043 12 23 4.8 17.7 0.00 0.46 0.00 46 1005.5
20260503194546 11 355 6.4 17.7 0.00 0.46 0.00 40 1005.5
20260503194042 11 244 6.4 14.5 0.00 0.46 0.00 44 1005.6
20260503193542 11 202 3.2 12.9 0.00 0.46 0.00 44 1005.4
20260503193050 11 313 4.8 16.1 0.00 0.46 0.00 44 1005.6
20260503192541 11 343 6.4 16.1 0.00 0.46 0.00 44 1005.6
20260503192041 11 309 3.2 14.5 0.00 0.46 0.00 46 1005.5
20260503191542 11 351 4.8 12.9 0.00 0.46 0.00 48 1005.4
20260503191041 11 350 6.4 12.9 0.00 0.46 0.00 46 1005.4
20260503190544 11 329 3.2 17.7 0.00 0.46 0.00 48 1005.4
20260503190040 11 19 4.8 17.7 0.00 0.56 0.00 47 1005.5
20260503185542 11 45 6.4 14.5 0.00 0.56 0.00 49 1005.5
20260503185038 11 267 1.6 16.1 0.00 0.56 0.00 44 1005.6
20260503184551 11 283 6.4 16.1 0.00 0.56 0.00 45 1005.6
20260503184040 12 318 4.8 19.3 0.00 0.56 0.00 45 1005.6
20260503183536 11 5 6.4 19.3 0.00 0.56 0.00 50 1005.5
20260503183052 11 5 6.4 22.5 0.00 0.56 0.00 49 1005.6
20260503182536 11 59 8.0 16.1 0.00 0.56 0.00 48 1005.5
20260503182034 11 94 8.0 12.9 0.00 0.56 0.00 48 1005.4
20260503181535 11 219 3.2 12.9 0.00 0.56 0.00 48 1005.5
20260503181034 11 244 3.2 12.9 0.00 0.56 0.00 51 1005.5
20260503180533 11 206 6.4 16.1 0.00 0.56 0.00 51 1005.5
20260503180040 11 324 8.0 16.1 0.00 0.56 0.00 49 1005.7
20260503175530 11 313 3.2 11.3 0.00 0.56 0.00 51 1005.7
20260503175030 10 333 4.8 24.1 0.00 0.56 0.00 54 1005.7
20260503174528 10 333 6.4 24.1 0.00 0.56 0.00 51 1005.8
20260503174028 10 38 4.8 16.1 0.00 0.56 0.00 51 1005.7
20260503173527 10 323 4.8 17.7 0.00 0.56 0.00 51 1005.7
20260503173037 10 20 4.8 17.7 0.00 0.56 0.00 53 1005.8
20260503172526 10 65 6.4 19.3 0.00 0.56 0.00 54 1005.8
20260503172024 10 275 4.8 19.3 0.00 0.56 0.00 56 1005.7
20260503171524 10 217 4.8 12.9 0.00 0.56 0.00 55 1005.7
20260503171025 10 29 4.8 12.9 0.00 0.56 0.00 56 1005.7
20260503170524 10 291 3.2 16.1 0.00 0.56 0.00 55 1005.7
20260503151011 8 337 8.0 16.1 0.00 0.56 0.00 70 1006.0
20260503150507 8 299 3.2 16.1 0.00 0.56 0.00 72 1006.0
20260503131051 6 292 9.7 16.1 0.00 0.56 0.00 87 1006.4
20260503130548 6 76 1.6 11.3 0.00 0.56 0.00 88 1006.5
20260503110537 5 336 0.0 9.7 0.00 0.84 0.00 88 1006.7
20260503081516 5 328 0.0 6.4 0.00 0.89 0.00 93 1007.7
20260503081015 5 325 1.6 6.4 0.00 0.89 0.00 94 1007.6
20260503080514 5 329 0.0 6.4 0.00 0.89 0.00 94 1007.6
20260503072508 5 38 1.6 6.4 0.00 0.89 0.00 95 1008.0
20260503072007 5 92 0.0 1.6 0.00 0.89 0.00 95 1008.1
20260503071510 5 92 0.0 1.6 0.00 0.89 0.00 95 1008.1
20260503071006 5 85 0.0 0.0 0.00 0.89 0.00 95 1008.1
20260503070507 5 85 0.0 0.0 0.00 0.89 0.00 95 1008.1
20260503055054 5 292 1.6 3.2 0.00 0.89 0.00 95 1008.9
20260503054554 6 13 0.0 1.6 0.00 0.89 0.00 95 1008.9
20260503054054 5 13 0.0 1.6 0.00 0.89 0.00 95 1008.9
20260503053553 5 13 0.0 1.6 0.00 0.89 0.00 95 1009.1
20260503053053 5 13 0.0 1.6 0.00 0.89 0.00 95 1009.1
20260503052553 5 13 0.0 0.0 0.00 0.89 0.00 95 1009.1
20260503052051 6 13 0.0 0.0 0.00 0.89 0.00 95 1009.1
20260503051553 6 13 0.0 0.0 0.00 0.89 0.00 95 1009.4
20260503051050 6 13 0.0 0.0 0.00 0.89 0.00 95 1009.3
20260503050549 6 13 0.0 0.0 0.00 0.89 0.00 95 1009.5
20260503050048 6 13 0.0 0.0 0.00 0.89 0.00 95 1009.6
20260503045550 6 13 0.0 0.0 0.03 0.89 0.00 95 1009.5
20260503045050 6 13 0.0 1.6 0.03 0.89 0.00 95 1009.6
20260503044546 6 13 0.0 6.4 0.03 0.89 0.00 95 1009.7
20260503044046 6 19 1.6 6.4 0.03 0.89 0.00 95 1009.6
20260503043545 6 201 0.0 3.2 0.03 0.89 0.00 95 1009.6
20260503043047 6 201 0.0 3.2 0.03 0.89 0.00 95 1009.7
20260503042543 6 283 0.0 0.0 0.03 0.89 0.00 95 1010.0
20260503042043 6 283 0.0 1.6 0.03 0.89 0.00 95 1010.0
20260503041544 6 296 0.0 1.6 0.03 0.89 0.00 95 1010.0
20260503041042 6 236 0.0 9.7 0.03 0.89 0.00 96 1010.0
20260503040541 6 336 3.2 11.3 0.03 0.89 0.00 95 1010.0
20260503040047 6 99 1.6 8.0 0.00 0.86 0.86 95 1010.0
20260503035539 6 331 0.0 6.4 0.00 0.86 0.86 96 1010.1
20260503035037 7 331 1.6 6.4 0.00 0.86 0.86 96 1010.0
20260503034549 7 323 0.0 3.2 0.00 0.86 0.86 96 1010.0
20260503034037 7 309 0.0 6.4 0.00 0.86 0.86 96 1010.1
20260503033536 7 344 1.6 6.4 0.00 0.86 0.86 96 1010.1
20260503033042 7 244 0.0 3.2 0.00 0.86 0.86 96 1010.1
20260503032535 7 244 0.0 3.2 0.00 0.86 0.86 96 1010.0
20260503032035 7 254 0.0 3.2 0.00 0.86 0.86 96 1009.9
20260503031540 7 254 0.0 3.2 0.00 0.86 0.86 96 1009.7
20260503031134 7 325 0.0 1.6 0.00 0.86 0.86 96 1009.7
20260503030534 7 325 0.0 1.6 0.00 0.86 0.86 96 1009.9
20260503030046 7 325 0.0 1.6 0.00 0.86 0.86 96 1009.9
20260503025534 7 325 0.0 1.6 0.00 0.86 0.86 96 1009.9
20260503025033 7 325 0.0 3.2 0.00 0.86 0.86 96 1009.9
20260503024533 7 325 0.0 3.2 0.00 0.86 0.86 96 1010.0
20260503024033 7 325 0.0 3.2 0.00 0.86 0.86 96 1010.1
20260503023532 7 325 0.0 3.2 0.00 0.86 0.86 96 1010.1
20260503023034 7 275 0.0 1.6 0.00 0.86 0.86 96 1010.2
20260503022532 7 275 0.0 3.2 0.00 0.86 0.86 95 1010.2
20260503022032 7 273 0.0 3.2 0.00 0.86 0.86 95 1010.2
20260503021540 7 272 0.0 3.2 0.00 0.86 0.86 95 1010.2
20260503021032 7 272 1.6 3.2 0.00 0.86 0.86 95 1010.2
20260503020532 7 264 0.0 1.6 0.00 0.86 0.86 96 1010.1
20260503020032 7 264 0.0 1.6 0.00 0.86 0.86 96 1010.2
20260503015533 7 264 0.0 1.6 0.00 0.86 0.86 95 1010.2
20260503015031 7 264 0.0 1.6 0.00 0.86 0.86 95 1010.2
20260503014530 7 264 0.0 1.6 0.00 0.86 0.86 95 1010.2
20260503014030 7 264 0.0 1.6 0.00 0.86 0.86 95 1010.2
20260503013530 8 264 0.0 1.6 0.00 0.86 0.86 95 1010.2
20260503013031 8 264 0.0 0.0 0.00 0.86 0.86 95 1010.2
20260503012531 8 264 0.0 0.0 0.00 0.86 0.86 95 1010.2
20260503012030 8 264 0.0 3.2 0.00 0.86 0.86 95 1010.2
20260503011534 8 264 0.0 3.2 0.00 0.86 0.86 95 1010.1
20260503011029 8 239 0.0 1.6 0.00 0.86 0.86 95 1010.2
20260503010529 8 239 0.0 3.2 0.00 0.86 0.86 95 1010.2
20260503010029 8 239 1.6 3.2 0.00 0.86 0.86 95 1010.2
20260503005529 8 242 1.6 3.2 0.00 0.86 0.86 95 1010.1
20260503005029 8 269 0.0 3.2 0.00 0.86 0.86 95 1010.0
20260503004528 8 275 0.0 3.2 0.00 0.86 0.86 95 1010.0
20260503004032 8 275 0.0 6.4 0.00 0.86 0.86 95 1009.9
20260503003528 8 271 1.6 4.8 0.00 0.86 0.86 95 1009.8
20260503003028 8 221 1.6 4.8 0.00 0.86 0.86 95 1009.7
20260503002527 8 190 0.0 6.4 0.00 0.86 0.86 95 1009.6
20260503002032 8 176 1.6 4.8 0.00 0.86 0.86 95 1009.5
20260503001528 8 106 0.0 6.4 0.00 0.86 0.86 95 1009.7
20260503001028 8 112 1.6 6.4 0.00 0.86 0.86 95 1009.8
20260503000527 8 98 1.6 6.4 0.00 0.86 0.86 95 1009.9
20260503000033 8 103 1.6 3.2 0.03 0.86 0.86 95 1010.0
20260502235527 8 219 0.0 3.2 0.03 0.86 0.86 95 1010.1
20260502235026 8 219 0.0 3.2 0.03 0.86 0.86 95 1010.0
20260502234526 8 216 0.0 3.2 0.03 0.86 0.86 95 1009.9
20260502234026 8 209 1.6 3.2 0.03 0.86 0.86 95 1009.8